Location: Croissy-Beaubourg
(48.8283°N, 2.6696°E)
Time: 22:54:45
(UTC+00:00)

Cosmos 2082 - Pass Details

Date: 18 August 2022
Orbit: 832 x 856 km, 71.0° (Epoch: 28 September)

Event Time Altitude Azimuth Distance (km) Brightness Sun altitude
Rises 20:01:19 0° 257° (WSW) 3,376 7.6 -9.9°
Reaches altitude 10° 20:04:26 10° 274° (W) 2,447 7.1 -10.4°
Maximum altitude 20:08:29 20° 321° (NW) 1,852 6.6 -10.9°
Drops below altitude 10° 20:12:33 10° 7° (N) 2,464 6.5 -11.5°
Sets 20:15:43 0° 24° (NNE) 3,406 7.0 -11.9°
